Hourly Data Report for August 11, 2017

PITT MEADOWS CS
BRITISH COLUMBIA

49°12'29.964" N
122°41'24.076" W
5.00 m
1106178
71775
WMM

Download Data

Hourly Data (August 2017)
Hourly Data Report for August 11, 2017
TIME
LST
Temp Definition
°C
Dew Point Definition
°C
Rel Hum Definition
%
Precip. Amount Definition
mm

Wind Dir Definition
10's deg

Wind Spd Definition
km/h
Visibility Definition
km
Stn Press Definition
kPa
Hmdx Definition


Wind Chill Definition


Weather Definition


00:00 18.7 16.6 87 0.0   0   101.19     LegendNANA
01:00 17.9 16.0 89 0.0 11 2   101.22     LegendNANA
02:00 17.6 16.3 92 0.0 13 1   101.25     LegendNANA
03:00 17.3 15.9 91 0.0 0 1   101.27     LegendNANA
04:00 15.9 14.5 91 0.0 13 2   101.29     LegendNANA
05:00 15.8 14.8 94 0.0 11 2   101.28     LegendNANA
06:00 16.9 15.8 93 0.0 12 2   101.33     LegendNANA
07:00 18.0 14.4 80 0.0 18 2   101.34     LegendNANA
08:00 19.1 14.7 75 0.0 19 4   101.35     LegendNANA
09:00 21.2 15.3 69 0.0 18 5   101.33 25   LegendNANA
10:00 23.7 15.8 61 0.0 17 3   101.31 28   LegendNANA
11:00 25.7 16.2 56 0.0 22 2   101.26 30   LegendNANA
12:00 27.2 16.3 51 0.0 17 4   101.19 32   LegendNANA
13:00 28.3 15.9 47 0.0 22 7   101.14 33   LegendNANA
14:00 28.5 15.6 45 0.0 18 10   101.12 33   LegendNANA
15:00 28.3 14.1 42 0.0 19 8   101.09 32   LegendNANA
16:00 28.0 14.1 43 0.0 19 8   101.05 31   LegendNANA
17:00 26.5 13.3 44 0.0 18 9   101.03 29   LegendNANA
18:00 24.9 13.8 50 0.0 20 6   101.00 28   LegendNANA
19:00 23.6 14.2 56 0.0 16 3   101.01 27   LegendNANA
20:00 20.9 13.9 64 0.0 17 3   101.01     LegendNANA
21:00 20.5 15.6 73 0.0 20 3   101.03 25   LegendNANA
22:00 19.3 12.9 67 0.0 15 4   101.08     LegendNANA
23:00 16.9 12.4 74 0.0 8 4   101.13     LegendNANA

Notes on Data Quality.

Legend

  • E = Estimated
  • M = Missing
  • NA = Not Available*
  • [empty] = Indicates an unobserved value
Date modified: